Rifle, CO

11:26 AM MDT on March 27, 2017 (GMT -0600)
Garfield County Regional

Weather History for KRIL - July, 2013

Change the Weather History Date:

Wednesday, July 17, 2013

  Actual Average Record
Temperature  
Mean Temperature 78 °F 73 °F  
Max Temperature 91 °F 91 °F 100 °F (1934)
Min Temperature 65 °F 55 °F 39 °F (1962)
Degree Days  
Heating Degree Days 0 0  
Month to date heating degree days 0 0  
Since 1 June heating degree days 13 59  
Since 1 July heating degree days 0 0  
Cooling Degree Days 13 8  
Month to date cooling degree days 194 124  
Year to date cooling degree days 352 226  
Since 1 June cooling degree days 345 219  
Growing Degree Days 28 (Base 50)    
Moisture  
Dew Point 54 °F    
Average Humidity 46    
Maximum Humidity 68    
Minimum Humidity 24    
Precipitation  
Precipitation 0.08 in 0.04 in 0.65 in (1933)
Month to date precipitation 0.45 0.45  
Year to date precipitation 4.44 6.89  
Sea Level Pressure  
Sea Level Pressure 30.01 in    
Wind  
Wind Speed 6 mph (NW)    
Max Wind Speed 23 mph    
Max Gust Speed 32 mph    
Visibility 10 miles    
Events Rain , Thunderstorm    
T = Trace of Precipitation, MM = Missing Value Source: NWS Daily Summary

Daily Weather History Graph

Daily Weather History Graph

Search for Another Location

Airport or City:

Trip Planner

Search our weather history database for the weather conditions in past years. The results will help you decide how hot, cold, wet, or windy it might be!

Date:

Astronomy

Jul. 17, 2013 Rise Set
Actual Time 5:57 AM MDT 8:35 PM MDT
Civil Twilight 5:26 AM MDT 9:07 PM MDT
Nautical Twilight 4:47 AM MDT 9:46 PM MDT
Astronomical Twilight 4:03 AM MDT 10:30 PM MDT
Moon 3:28 PM MDT (7/17) 1:06 AM MDT (7/17)
Length of Visible Light 15h 40m
Length of Day
14h 38m
Waxing Gibbous, 68% of the Moon is Illuminated
Jul 17
Waxing Gibbous
Jul 22
Full
Jul 29
Last Quarter
Aug 6
New
Aug 14
First Quarter

Hourly Weather History & Observations

Time (MDT) Temp. Heat Index Dew Point Humidity Pressure Visibility Wind Dir Wind Speed Gust Speed Precip Events Conditions
12:53 AM 75.0 °F - 48.9 °F 40% 29.92 in 10.0 mi SSE 19.6 mph - N/A   Partly Cloudy
1:53 AM 71.1 °F - 53.1 °F 53% 29.95 in 10.0 mi SW 6.9 mph - N/A   Clear
2:53 AM 71.1 °F - 52.0 °F 51% 29.98 in 10.0 mi SW 4.6 mph - N/A   Overcast
3:53 AM 70.0 °F - 55.0 °F 59% 29.99 in 10.0 mi West 8.1 mph - N/A   Scattered Clouds
4:53 AM 68.0 °F - 55.9 °F 65% 30.02 in 10.0 mi West 15.0 mph - N/A   Clear
5:53 AM 66.9 °F - 55.0 °F 66% 30.02 in 10.0 mi WSW 4.6 mph - N/A   Clear
6:53 AM 66.0 °F - 55.0 °F 68% 30.06 in 10.0 mi Calm Calm - N/A   Clear
7:53 AM 69.1 °F - 57.0 °F 65% 30.06 in 10.0 mi Calm Calm - N/A   Clear
8:53 AM 72.0 °F - 57.0 °F 59% 30.06 in 10.0 mi Calm Calm - N/A   Clear
9:53 AM 75.9 °F - 55.9 °F 50% 30.05 in 10.0 mi NNW 3.5 mph - N/A   Clear
10:53 AM 79.0 °F - 53.1 °F 40% 30.03 in 10.0 mi NW 4.6 mph - N/A   Clear
11:53 AM 82.9 °F 81.8 °F 53.1 °F 36% 30.01 in 10.0 mi Variable 4.6 mph - N/A   Clear
12:53 PM 88.0 °F - 48.9 °F 26% 29.97 in 10.0 mi West 10.4 mph 16.1 mph N/A   Clear
1:53 PM 89.1 °F - 50.0 °F 26% 29.94 in 10.0 mi WNW 8.1 mph - N/A   Clear
2:53 PM 89.1 °F - 48.9 °F 25% 29.91 in 10.0 mi Variable 3.5 mph - N/A   Clear
3:53 PM 89.1 °F - 48.9 °F 25% 29.90 in 10.0 mi NNE 5.8 mph - N/A   Clear
4:53 PM 86.0 °F 84.5 °F 55.0 °F 35% 29.91 in 10.0 mi North 5.8 mph - N/A   Clear
5:53 PM 81.0 °F - 50.0 °F 34% 29.94 in 10.0 mi NNW 5.8 mph - N/A   Clear
6:53 PM 82.0 °F - 48.9 °F 31% 29.94 in 10.0 mi WNW 5.8 mph - N/A   Clear
7:53 PM 81.0 °F 80.4 °F 53.1 °F 38% 29.94 in 10.0 mi Calm Calm - N/A   Clear
8:11 PM 80.6 °F 80.3 °F 53.6 °F 39% 30.18 in 10.0 mi NE 3.5 mph - N/A Thunderstorm Scattered Clouds
8:44 PM 73.4 °F - 57.2 °F 57% 30.20 in - East 10.4 mph - N/A Thunderstorm Thunderstorm
8:53 PM 70.0 °F - 57.9 °F 65% 30.02 in 5.0 mi NNE 12.7 mph 19.6 mph N/A Rain , Thunderstorm Thunderstorms and Rain
9:53 PM 69.1 °F - 57.0 °F 65% 30.00 in 10.0 mi West 20.7 mph 28.8 mph 0.02 in Thunderstorm Clear
10:04 PM 69.8 °F - 57.2 °F 64% 30.24 in 10.0 mi North 4.6 mph - N/A   Clear
10:53 PM 68.0 °F - 59.0 °F 73% 30.03 in 10.0 mi East 4.6 mph - N/A   Partly Cloudy
11:53 PM 68.0 °F - 57.0 °F 68% 30.02 in 10.0 mi ENE 5.8 mph - N/A   Clear